Weather History for KAMW - September, 2013

Change the Weather History Date:

Monday, September 2, 2013

  Actual Average Record
Temperature  
Mean Temperature 66 °F 68 °F  
Max Temperature 78 °F 79 °F 96 °F (2000)
Min Temperature 54 °F 56 °F 46 °F (2003)
Degree Days  
Heating Degree Days 0 1  
Month to date heating degree days 0 2  
Since 1 July heating degree days 14 18  
Cooling Degree Days 1 4  
Month to date cooling degree days 8 8  
Year to date cooling degree days 757 691  
Growing Degree Days 16 (Base 50)    
Moisture  
Dew Point 53 °F    
Average Humidity 63    
Maximum Humidity 93    
Minimum Humidity 33    
Precipitation  
Precipitation 0.00 in 0.12 in 1.06 in (2006)
Month to date precipitation 0.12 0.24  
Sea Level Pressure  
Sea Level Pressure 30.02 in    
Wind  
Wind Speed 8 mph (North)    
Max Wind Speed 18 mph    
Max Gust Speed 25 mph    
Visibility 10 miles    
Events      
T = Trace of Precipitation, MM = Missing Value Source: NWS Daily Summary

Daily Weather History Graph

Daily Weather History Graph

Search for Another Location

Airport or City:

Trip Planner

Search our weather history database for the weather conditions in past years. The results will help you decide how hot, cold, wet, or windy it might be!

Date:

Astronomy

Sep. 02, 2013 Rise Set
Actual Time 6:41 AM CDT 7:45 PM CDT
Civil Twilight 6:12 AM CDT 8:14 PM CDT
Nautical Twilight 5:38 AM CDT 8:48 PM CDT
Astronomical Twilight 5:02 AM CDT 9:24 PM CDT
Moon 3:57 AM CDT 6:00 PM CDT
Length of Visible Light 14h 01m
Length of Day
13h 04m
Waning Crescent, 8% of the Moon is Illuminated
Sep 2
Waning Crescent
Sep 5
New
Sep 12
First Quarter
Sep 19
Full
Sep 26
Last Quarter

Hourly Weather History & Observations

Time (CDT) Temp. Dew Point Humidity Pressure Visibility Wind Dir Wind Speed Gust Speed Precip Events Conditions
12:53 AM 61.0 °F 55.9 °F 83% 29.96 in 10.0 mi NNW 9.2 mph - N/A   Clear
1:53 AM 60.1 °F 55.9 °F 86% 29.97 in 10.0 mi NNW 9.2 mph - N/A   Clear
2:53 AM 59.0 °F 55.0 °F 87% 29.97 in 9.0 mi NNW 8.1 mph - N/A   Clear
3:53 AM 57.9 °F 55.0 °F 90% 29.98 in 10.0 mi NNW 10.4 mph - N/A   Clear
4:53 AM 57.0 °F 54.0 °F 89% 29.99 in 10.0 mi North 11.5 mph - N/A   Clear
5:53 AM 55.9 °F 54.0 °F 93% 30.00 in 8.0 mi NNW 10.4 mph - N/A   Clear
6:53 AM 55.0 °F 53.1 °F 93% 30.02 in 10.0 mi North 10.4 mph - N/A   Clear
7:53 AM 57.0 °F 54.0 °F 89% 30.04 in 10.0 mi North 10.4 mph - N/A   Clear
8:53 AM 61.0 °F 55.0 °F 81% 30.05 in 10.0 mi North 8.1 mph - N/A   Clear
9:53 AM 66.0 °F 55.9 °F 70% 30.06 in 10.0 mi North 8.1 mph - N/A   Clear
10:53 AM 70.0 °F 55.0 °F 59% 30.06 in 10.0 mi North 9.2 mph - N/A   Clear
11:53 AM 72.0 °F 54.0 °F 53% 30.06 in 10.0 mi North 12.7 mph 19.6 mph N/A   Clear
12:53 PM 75.0 °F 53.1 °F 46% 30.05 in 10.0 mi North 12.7 mph 19.6 mph N/A   Clear
1:53 PM 75.0 °F 51.1 °F 43% 30.03 in 10.0 mi NW 9.2 mph 19.6 mph N/A   Clear
2:53 PM 77.0 °F 48.9 °F 37% 30.01 in 10.0 mi NNW 10.4 mph - N/A   Clear
3:53 PM 77.0 °F 48.9 °F 37% 30.01 in 10.0 mi North 11.5 mph 16.1 mph N/A   Clear
4:53 PM 77.0 °F 46.9 °F 34% 30.00 in 10.0 mi NNE 10.4 mph - N/A   Clear
5:53 PM 75.9 °F 48.9 °F 38% 30.00 in 10.0 mi North 8.1 mph - N/A   Clear
6:53 PM 73.0 °F 48.0 °F 41% 30.01 in 10.0 mi North 9.2 mph - N/A   Clear
7:53 PM 66.0 °F 50.0 °F 56% 30.01 in 10.0 mi North 5.8 mph - N/A   Clear
8:53 PM 64.0 °F 51.1 °F 63% 30.02 in 10.0 mi North 4.6 mph - N/A   Clear
9:53 PM 62.1 °F 52.0 °F 70% 30.03 in 10.0 mi Calm Calm - N/A   Clear
10:53 PM 59.0 °F 53.1 °F 81% 30.05 in 10.0 mi ENE 3.5 mph - N/A   Clear
11:53 PM 57.0 °F 52.0 °F 83% 30.05 in 10.0 mi ENE 4.6 mph - N/A   Clear